STARLINK-2404, 48093

Orbit data source: Space-Track

STARLINK-2404, 48093 is a payload satellite owned by SpaceX/Seattle (US) in LEO that was launched on Wed, 07 Apr 2021 UTC via an FALCON 9 launch vehicle from the Air Force Eastern Test Range (AFETR). Payload-class satellites include a variety of spacecraft equipped with specific instruments for various scientific and technological missions. These include communications satellites like Starlink; space stations such as the ISS; scientific satellites like the Hubble; Earth observation satellites from companies like Planet Labs, Umbra, and HawkEye 360; GPS; miniature CubeSats for education and research; and military/defense satellites.

Loading next visibility...
Identifier
48093, 2021-027B
Orbit
LEO
Country
Flag of USUS
Related business
Manufacturer
SpaceX/Seattle
Mission
Operational Commercial Communications
Bus & Motor
STARLINK, Unknown motor
Mass
260 kg wet, ~248 kg dry
Launch date (UTC)
2021-04-07 (5 years ago)
Launch vehicle
FALCON 9
Launch site
Air Force Eastern Test Range (AFETR)
Object type
Payload
Rocket body
Debris
Shape & HBR
Box + 1 Pan, 10.1 m
Radar Cross Section
13.562 m², Large (>1 m²)

Expand to show TLE details & history
Last TLE update: 3 days ago

TLE from 3 days ago
0 STARLINK-2404
1 48093U 21027B   26170.92767606 -.00002518  00000-0 -69387-4 0  9990
2 48093  53.1603  39.3022 0001325 107.0992 253.0155 15.31701419288328
Epoch: 2026-06-19T22:15Z
TLE epoch observation values (Epoch: 2026-06-19T22:15:51.211Z)
Latitude
0.00001°
Longitude
157.1892°
Altitude
471.901 km
Speed
7.631 km/s
True Right ascension
02h 37m 12s
True Declination
0° 00' 00"
Sunlit
Object was in daylight at epoch
Visualization orbit readout
Latitude
Unknown
Longitude
Unknown
Altitude
Unknown
Speed
Unknown
Apparent Right ascension
Unknown
Apparent Declination
Unknown
Sunlit
N/A
Visualization observer readout
Local Sidereal Time
21:30:30
Azimuth
Unknown
Elevation
Unknown
Doppler factor
Unknown
Orbital elements
Apogee altitude
471.9 km
Perigee altitude
470.085 km
Semi-major axis
6,849.129 km
Eccentricity
0.00013
Inclination
53.1603°
RAAN
39.3022°
Arg. of periapsis
107.0992°
True anomaly
253.00098°
Mean anomaly
253.0155°
Eccentric anomaly
253.00824°
Mean motion
3.82904 °/min
Orbital period
94.02 mins
BSTAR
-0.000069387
Loading maneuver chart data...
Computing Atmospheric mass density...
Loading historical data...
Loading historical data...
Loading historical data...
Loading historical data...
Loading historical data...
Loading historical data...
Loading historical data...

Documentation

Showing up to 5 results
|